QPF
0.00 0.00 0.00 0.01 0.01 0.01 0.02 0.01 0.01 0.01 0.02 0.02 0.01 0.01 0.02 0.02 0.01 0.02 0.02 0.02 0.01 0.01 0.03 0.07 0.08 0.07 0.07 0.07 0.06 0.06 0.11 0.16 0.13 0.15 0.10 0.09 0.07 0.07 0.06 0.06 0.08 0.11 0.09 0.07 0.08 0.08 0.09 0.07 0.06
0.00 0.00 0.01 0.01 0.02 0.01 0.01 0.01 0.01 0.01 0.01 0.02 0.01 0.01 0.01 0.01 0.02 0.03 0.04 0.03 0.02 0.01 0.02 0.03 0.04 0.04 0.05 0.05 0.06 0.08 0.15 0.20 0.14 0.13 0.09 0.08 0.08 0.08 0.07 0.08 0.10 0.13 0.11 0.11 0.11 0.10 0.09 0.07 0.05
0.00 0.01 0.02 0.02 0.01 0.01 0.01 0.01 0.01 0.01 0.01 0.02 0.02 0.01 0.01 0.03 0.05 0.05 0.06 0.03 0.01 0.01 0.03 0.03 0.02 0.03 0.04 0.06 0.11 0.10 0.18 0.15 0.08 0.08 0.08 0.08 0.10 0.10 0.09 0.09 0.08 0.11 0.11 0.12 0.15 0.11 0.09 0.07 0.07
0.01 0.02 0.02 0.02 0.01 0.01 0.01 0.01 0.01 0.01 0.01 0.02 0.01 0.01 0.01 0.04 0.04 0.04 0.02 0.01 0.01 0.02 0.02 0.03 0.03 0.09 0.13 0.12 0.14 0.14 0.14 0.09 0.08 0.10 0.10 0.09 0.10 0.10 0.09 0.08 0.06 0.10 0.15 0.16 0.17 0.10 0.09 0.09 0.08
0.01 0.02 0.01 0.02 0.02 0.01 0.00 0.01 0.01 0.01 0.01 0.01 0.01 0.01 0.02 0.03 0.03 0.01 0.01 0.01 0.01 0.02 0.03 0.04 0.05 0.08 0.09 0.10 0.10 0.12 0.09 0.07 0.08 0.09 0.08 0.09 0.11 0.11 0.09 0.08 0.07 0.10 0.16 0.16 0.17 0.11 0.10 0.11 0.10
0.02 0.03 0.02 0.02 0.02 0.01 0.00 0.00 0.00 0.01 0.02 0.01 0.01 0.01 0.03 0.03 0.02 0.01 0.02 0.02 0.01 0.02 0.04 0.06 0.07 0.08 0.07 0.07 0.07 0.08 0.06 0.05 0.07 0.07 0.06 0.06 0.08 0.09 0.11 0.10 0.11 0.10 0.13 0.15 0.13 0.12 0.14 0.14 0.13
0.04 0.07 0.04 0.01 0.01 0.01 0.01 0.00 0.01 0.02 0.04 0.03 0.01 0.01 0.03 0.03 0.01 0.01 0.02 0.02 0.03 0.04 0.05 0.07 0.09 0.08 0.06 0.05 0.06 0.06 0.05 0.05 0.06 0.07 0.09 0.09 0.09 0.10 0.10 0.12 0.14 0.13 0.13 0.15 0.13 0.12 0.14 0.15 0.14
0.02 0.03 0.03 0.02 0.01 0.02 0.01 0.01 0.00 0.01 0.03 0.03 0.01 0.01 0.02 0.03 0.01 0.01 0.02 0.03 0.03 0.04 0.04 0.04 0.05 0.05 0.05 0.06 0.06 0.06 0.07 0.10 0.11 0.10 0.10 0.11 0.11 0.12 0.13 0.14 0.18 0.20 0.19 0.19 0.16 0.14 0.12 0.12 0.11
0.01 0.01 0.02 0.02 0.01 0.01 0.01 0.01 0.00 0.01 0.01 0.01 0.01 0.02 0.03 0.02 0.01 0.01 0.02 0.02 0.02 0.04 0.05 0.05 0.05 0.04 0.03 0.04 0.03 0.06 0.07 0.12 0.19 0.15 0.11 0.14 0.14 0.14 0.13 0.13 0.16 0.19 0.20 0.18 0.18 0.18 0.18 0.12 0.08
0.00 0.01 0.01 0.01 0.01 0.02 0.01 0.01 0.01 0.01 0.01 0.01 0.02 0.03 0.03 0.02 0.02 0.02 0.02 0.03 0.03 0.04 0.04 0.06 0.06 0.04 0.03 0.02 0.02 0.06 0.06 0.11 0.17 0.15 0.10 0.15 0.18 0.15 0.11 0.11 0.13 0.14 0.15 0.15 0.17 0.22 0.21 0.13 0.09
0.00 0.00 0.00 0.02 0.01 0.01 0.01 0.02 0.01 0.01 0.02 0.02 0.03 0.03 0.03 0.02 0.02 0.02 0.02 0.03 0.02 0.02 0.02 0.03 0.04 0.03 0.04 0.03 0.03 0.05 0.07 0.14 0.17 0.14 0.10 0.11 0.14 0.12 0.09 0.10 0.12 0.12 0.11 0.13 0.14 0.22 0.28 0.19 0.12
0.01 0.00 0.00 0.01 0.02 0.01 0.01 0.01 0.01 0.01 0.02 0.02 0.03 0.03 0.02 0.02 0.02 0.02 0.01 0.01 0.01 0.01 0.01 0.01 0.02 0.02 0.02 0.03 0.04 0.05 0.12 0.20 0.23 0.19 0.13 0.13 0.13 0.10 0.06 0.06 0.07 0.08 0.08 0.10 0.11 0.17 0.22 0.14 0.12
0.01 0.00 0.00 0.01 0.01 0.01 0.00 0.00 0.01 0.01 0.01 0.01 0.01 0.01 0.02 0.02 0.02 0.02 0.02 0.01 0.01 0.01 0.02 0.01 0.01 0.02 0.02 0.03 0.03 0.05 0.12 0.17 0.20 0.14 0.12 0.12 0.11 0.09 0.07 0.06 0.07 0.06 0.09 0.08 0.08 0.13 0.12 0.10 0.10
0.00 0.00 0.01 0.01 0.01 0.00 0.00 0.00 0.00 0.00 0.01 0.01 0.00 0.01 0.01 0.01 0.02 0.02 0.02 0.02 0.01 0.01 0.01 0.01 0.01 0.02 0.02 0.03 0.03 0.04 0.04 0.07 0.08 0.06 0.08 0.08 0.09 0.08 0.08 0.07 0.06 0.06 0.08 0.09 0.09 0.09 0.08 0.07 0.07
0.00 0.00 0.01 0.01 0.00 0.00 0.00 0.00 0.00 0.00 0.00 0.00 0.00 0.00 0.01 0.01 0.01 0.01 0.01 0.02 0.02 0.02 0.01 0.01 0.02 0.01 0.02 0.03 0.03 0.03 0.03 0.03 0.04 0.04 0.05 0.06 0.06 0.07 0.07 0.06 0.06 0.07 0.08 0.08 0.08 0.06 0.05 0.05 0.05
0.00 0.00 0.00 0.00 0.00 0.00 0.00 0.01 0.00 0.00 0.00 0.01 0.00 0.01 0.01 0.01 0.01 0.01 0.01 0.02 0.03 0.02 0.03 0.02 0.01 0.01 0.02 0.03 0.03 0.03 0.03 0.03 0.04 0.05 0.04 0.04 0.04 0.04 0.04 0.06 0.08 0.09 0.09 0.08 0.07 0.06 0.05 0.05 0.06
0.01 0.00 0.00 0.00 0.00 0.00 0.00 0.01 0.00 0.01 0.00 0.01 0.01 0.01 0.00 0.00 0.00 0.01 0.01 0.02 0.02 0.02 0.03 0.03 0.03 0.03 0.03 0.03 0.03 0.03 0.03 0.04 0.04 0.04 0.04 0.04 0.03 0.01 0.02 0.05 0.07 0.09 0.10 0.09 0.08 0.09 0.10 0.10 0.09
0.00 0.00 0.00 0.00 0.00 0.00 0.00 0.00 0.00 0.01 0.01 0.00 0.01 0.01 0.00 0.00 0.01 0.01 0.01 0.01 0.01 0.01 0.02 0.03 0.04 0.04 0.05 0.06 0.06 0.02 0.02 0.02 0.03 0.04 0.05 0.04 0.03 0.03 0.03 0.04 0.05 0.05 0.07 0.09 0.11 0.12 0.10 0.10 0.10
0.00 0.00 0.00 0.00 0.00 0.00 0.00 0.00 0.00 0.00 0.00 0.01 0.01 0.01 0.01 0.00 0.00 0.00 0.00 0.00 0.01 0.00 0.01 0.02 0.03 0.04 0.06 0.06 0.06 0.03 0.02 0.02 0.02 0.03 0.04 0.03 0.03 0.04 0.04 0.03 0.05 0.05 0.06 0.08 0.11 0.11 0.07 0.07 0.07
0.00 0.00 0.00 0.00 0.00 0.00 0.00 0.00 0.00 0.00 0.00 0.00 0.01 0.01 0.01 0.01 0.01 0.01 0.01 0.00 0.00 0.00 0.01 0.02 0.02 0.02 0.02 0.04 0.04 0.03 0.02 0.01 0.01 0.02 0.02 0.03 0.04 0.04 0.05 0.07 0.08 0.08 0.08 0.07 0.08 0.08 0.07 0.06 0.06
0.00 0.00 0.00 0.00 0.00 0.00 0.00 0.00 0.00 0.00 0.00 0.00 0.00 0.01 0.01 0.01 0.01 0.01 0.02 0.01 0.01 0.01 0.01 0.01 0.01 0.01 0.01 0.02 0.03 0.04 0.04 0.03 0.02 0.03 0.03 0.03 0.04 0.04 0.06 0.07 0.09 0.12 0.09 0.07 0.07 0.07 0.08 0.06 0.05
0.00 0.00 0.00 0.00 0.00 0.00 0.00 0.01 0.00 0.00 0.00 0.00 0.00 0.01 0.01 0.01 0.01 0.01 0.02 0.01 0.01 0.01 0.01 0.01 0.01 0.01 0.02 0.02 0.05 0.07 0.07 0.07 0.05 0.04 0.03 0.03 0.03 0.03 0.03 0.05 0.07 0.09 0.09 0.07 0.05 0.07 0.09 0.08 0.07
0.00 0.00 0.00 0.00 0.00 0.00 0.00 0.00 0.00 0.00 0.00 0.00 0.00 0.01 0.01 0.01 0.01 0.01 0.01 0.01 0.01 0.00 0.00 0.01 0.01 0.01 0.02 0.03 0.04 0.05 0.07 0.07 0.05 0.03 0.04 0.05 0.03 0.03 0.03 0.04 0.06 0.06 0.06 0.07 0.06 0.06 0.07 0.07 0.08
0.00 0.00 0.00 0.00 0.00 0.00 0.00 0.00 0.00 0.00 0.00 0.00 0.00 0.00 0.01 0.00 0.00 0.00 0.00 0.01 0.01 0.00 0.00 0.01 0.01 0.02 0.03 0.03 0.02 0.02 0.02 0.03 0.05 0.07 0.07 0.05 0.03 0.03 0.04 0.04 0.04 0.05 0.06 0.06 0.05 0.06 0.06 0.06 0.06
0.00 0.00 0.00 0.00 0.00 0.00 0.00 0.00 0.00 0.00 0.00 0.00 0.00 0.00 0.00 0.00 0.00 0.00 0.00 0.01 0.01 0.00 0.01 0.02 0.02 0.02 0.03 0.02 0.01 0.01 0.01 0.02 0.03 0.06 0.07 0.05 0.03 0.04 0.03 0.03 0.04 0.05 0.06 0.06 0.06 0.06 0.06 0.06 0.05
0.00 0.00 0.00 0.00 0.00 0.00 0.00 0.00 0.00 0.00 0.00 0.00 0.00 0.00 0.00 0.00 0.00 0.00 0.00 0.01 0.01 0.01 0.02 0.02 0.02 0.02 0.02 0.01 0.01 0.01 0.01 0.01 0.02 0.03 0.03 0.04 0.04 0.03 0.03 0.03 0.04 0.05 0.06 0.05 0.06 0.06 0.05 0.04 0.04
0.00 0.00 0.00 0.00 0.00 0.00 0.00 0.00 0.00 0.00 0.00 0.00 0.00 0.00 0.00 0.00 0.00 0.00 0.00 0.01 0.01 0.02 0.02 0.02 0.02 0.01 0.01 0.01 0.01 0.01 0.01 0.02 0.02 0.03 0.03 0.02 0.03 0.03 0.03 0.04 0.04 0.05 0.06 0.06 0.06 0.05 0.04 0.04 0.04
0.00 0.00 0.00 0.00 0.00 0.00 0.00 0.00 0.00 0.00 0.00 0.00 0.00 0.00 0.00 0.01 0.00 0.00 0.00 0.00 0.00 0.01 0.01 0.00 0.01 0.01 0.01 0.01 0.01 0.01 0.01 0.01 0.02 0.01 0.02 0.02 0.02 0.01 0.02 0.02 0.02 0.04 0.04 0.04 0.04 0.04 0.04 0.05 0.05
0.00 0.00 0.00 0.00 0.00 0.00 0.00 0.01 0.00 0.00 0.00 0.00 0.00 0.00 0.00 0.00 0.00 0.00 0.00 0.00 0.01 0.01 0.00 0.00 0.00 0.01 0.01 0.01 0.00 0.01 0.01 0.01 0.01 0.01 0.01 0.01 0.02 0.01 0.02 0.02 0.03 0.05 0.04 0.04 0.05 0.04 0.04 0.04 0.05
0.00 0.00 0.00 0.00 0.00 0.00 0.00 0.00 0.00 0.00 0.00 0.00 0.00 0.00 0.00 0.00 0.00 0.00 0.01 0.01 0.02 0.01 0.00 0.00 0.00 0.00 0.00 0.00 0.01 0.02 0.02 0.03 0.02 0.01 0.01 0.02 0.02 0.02 0.02 0.03 0.03 0.04 0.05 0.05 0.05 0.04 0.04 0.04 0.05
MSLP
1008.08 1008.53 1008.97 1009.29 1009.39 1009.25 1008.88 1008.36 1007.83 1007.41 1007.21 1007.25 1007.51 1007.88 1008.20 1008.31 1008.10 1007.51 1006.58 1005.44 1004.22 1003.11 1002.24 1001.67 1001.42 1001.41 1001.53 1001.68 1001.78 1001.80 1001.75 1001.70 1001.70 1001.82 1002.08 1002.45 1002.88 1003.31 1003.69 1003.99 1004.21 1004.40 1004.64 1004.96 1005.41 1005.99 1006.67 1007.36 1008.02
1008.13 1008.61 1009.05 1009.33 1009.38 1009.15 1008.69 1008.08 1007.44 1006.93 1006.63 1006.59 1006.76 1007.06 1007.32 1007.41 1007.19 1006.64 1005.78 1004.72 1003.62 1002.63 1001.85 1001.37 1001.16 1001.15 1001.24 1001.33 1001.35 1001.28 1001.15 1001.02 1000.98 1001.06 1001.30 1001.66 1002.09 1002.53 1002.92 1003.22 1003.46 1003.68 1003.94 1004.31 1004.82 1005.47 1006.20 1006.97 1007.69
1008.21 1008.70 1009.10 1009.33 1009.30 1009.01 1008.47 1007.78 1007.07 1006.46 1006.07 1005.91 1005.96 1006.13 1006.27 1006.27 1006.01 1005.45 1004.65 1003.71 1002.75 1001.91 1001.29 1000.93 1000.80 1000.82 1000.89 1000.91 1000.82 1000.64 1000.39 1000.15 1000.02 1000.05 1000.25 1000.61 1001.07 1001.54 1001.98 1002.35 1002.66 1002.96 1003.29 1003.73 1004.30 1005.00 1005.79 1006.59 1007.35
1008.31 1008.75 1009.09 1009.25 1009.15 1008.79 1008.20 1007.48 1006.72 1006.07 1005.59 1005.32 1005.24 1005.25 1005.25 1005.12 1004.78 1004.21 1003.46 1002.62 1001.82 1001.15 1000.70 1000.48 1000.43 1000.47 1000.49 1000.42 1000.20 999.85 999.45 999.07 998.82 998.78 998.95 999.32 999.82 1000.39 1000.94 1001.43 1001.87 1002.28 1002.73 1003.26 1003.89 1004.64 1005.45 1006.27 1007.03
1008.38 1008.74 1008.99 1009.05 1008.89 1008.48 1007.88 1007.16 1006.42 1005.76 1005.25 1004.91 1004.72 1004.59 1004.44 1004.19 1003.76 1003.17 1002.45 1001.71 1001.05 1000.54 1000.24 1000.12 1000.12 1000.15 1000.10 999.88 999.49 998.96 998.36 997.82 997.45 997.32 997.47 997.87 998.45 999.13 999.83 1000.50 1001.10 1001.68 1002.26 1002.88 1003.59 1004.37 1005.19 1006.00 1006.75
1008.39 1008.63 1008.76 1008.72 1008.49 1008.07 1007.49 1006.82 1006.14 1005.54 1005.05 1004.70 1004.44 1004.22 1003.97 1003.61 1003.12 1002.50 1001.82 1001.16 1000.61 1000.22 1000.01 999.95 999.96 999.92 999.75 999.37 998.78 998.04 997.25 996.54 996.04 995.84 995.97 996.41 997.08 997.90 998.76 999.60 1000.39 1001.13 1001.85 1002.58 1003.35 1004.15 1004.97 1005.77 1006.49
1008.30 1008.39 1008.38 1008.23 1007.94 1007.52 1007.00 1006.43 1005.87 1005.37 1004.97 1004.66 1004.40 1004.15 1003.84 1003.44 1002.91 1002.30 1001.65 1001.06 1000.58 1000.25 1000.09 1000.02 999.98 999.83 999.51 998.95 998.17 997.23 996.27 995.42 994.82 994.56 994.68 995.15 995.90 996.83 997.83 998.82 999.76 1000.64 1001.48 1002.29 1003.11 1003.94 1004.75 1005.53 1006.23
1008.07 1008.01 1007.86 1007.62 1007.29 1006.88 1006.44 1005.98 1005.56 1005.21 1004.93 1004.70 1004.50 1004.28 1003.98 1003.57 1003.06 1002.48 1001.88 1001.34 1000.91 1000.61 1000.44 1000.33 1000.19 999.92 999.44 998.71 997.77 996.70 995.61 994.67 994.00 993.71 993.81 994.29 995.07 996.05 997.13 998.21 999.24 1000.21 1001.12 1001.99 1002.84 1003.68 1004.49 1005.26 1005.95
1007.73 1007.52 1007.25 1006.92 1006.56 1006.19 1005.82 1005.49 1005.21 1005.00 1004.85 1004.74 1004.62 1004.46 1004.22 1003.87 1003.42 1002.90 1002.37 1001.88 1001.48 1001.19 1000.99 1000.80 1000.56 1000.17 999.56 998.73 997.69 996.54 995.41 994.43 993.75 993.43 993.52 993.97 994.73 995.69 996.75 997.83 998.87 999.85 1000.77 1001.66 1002.52 1003.37 1004.19 1004.96 1005.65
1007.27 1006.96 1006.60 1006.22 1005.85 1005.51 1005.21 1004.98 1004.82 1004.73 1004.69 1004.68 1004.66 1004.58 1004.43 1004.16 1003.81 1003.38 1002.93 1002.51 1002.15 1001.86 1001.62 1001.37 1001.04 1000.56 999.89 999.00 997.95 996.81 995.71 994.78 994.12 993.80 993.86 994.26 994.93 995.79 996.75 997.73 998.69 999.60 1000.48 1001.34 1002.20 1003.04 1003.87 1004.65 1005.36
1006.78 1006.40 1005.99 1005.59 1005.23 1004.92 1004.68 1004.51 1004.42 1004.41 1004.44 1004.49 1004.54 1004.54 1004.47 1004.31 1004.07 1003.76 1003.41 1003.07 1002.76 1002.49 1002.22 1001.93 1001.56 1001.04 1000.36 999.51 998.52 997.48 996.49 995.65 995.06 994.77 994.79 995.10 995.64 996.34 997.12 997.92 998.73 999.52 1000.31 1001.11 1001.93 1002.76 1003.59 1004.40 1005.14
1006.30 1005.92 1005.51 1005.12 1004.78 1004.50 1004.29 1004.15 1004.08 1004.08 1004.12 1004.19 1004.26 1004.31 1004.31 1004.25 1004.12 1003.93 1003.71 1003.47 1003.22 1002.98 1002.73 1002.43 1002.05 1001.56 1000.93 1000.17 999.33 998.45 997.62 996.92 996.43 996.17 996.16 996.36 996.74 997.24 997.80 998.40 999.01 999.64 1000.31 1001.03 1001.80 1002.61 1003.45 1004.26 1005.02
1005.92 1005.57 1005.20 1004.86 1004.55 1004.29 1004.09 1003.94 1003.84 1003.80 1003.79 1003.82 1003.87 1003.93 1003.97 1003.99 1003.96 1003.90 1003.79 1003.65 1003.49 1003.31 1003.10 1002.83 1002.49 1002.06 1001.53 1000.91 1000.24 999.55 998.91 998.38 998.00 997.78 997.75 997.85 998.07 998.37 998.72 999.10 999.52 999.99 1000.54 1001.17 1001.88 1002.67 1003.49 1004.30 1005.06
1005.70 1005.41 1005.11 1004.82 1004.55 1004.31 1004.11 1003.92 1003.76 1003.63 1003.54 1003.48 1003.47 1003.50 1003.55 1003.61 1003.66 1003.70 1003.70 1003.67 1003.60 1003.49 1003.34 1003.13 1002.85 1002.51 1002.10 1001.64 1001.14 1000.65 1000.19 999.82 999.55 999.38 999.32 999.35 999.45 999.59 999.76 999.97 1000.23 1000.57 1001.01 1001.57 1002.22 1002.97 1003.76 1004.55 1005.30
1005.67 1005.45 1005.21 1004.98 1004.76 1004.54 1004.32 1004.10 1003.86 1003.63 1003.43 1003.27 1003.16 1003.12 1003.15 1003.22 1003.33 1003.44 1003.54 1003.60 1003.62 1003.58 1003.50 1003.35 1003.15 1002.90 1002.61 1002.29 1001.95 1001.62 1001.33 1001.08 1000.90 1000.78 1000.72 1000.70 1000.71 1000.75 1000.81 1000.92 1001.09 1001.35 1001.72 1002.21 1002.82 1003.52 1004.26 1005.01 1005.71
1005.83 1005.66 1005.48 1005.30 1005.13 1004.94 1004.71 1004.45 1004.15 1003.82 1003.51 1003.23 1003.03 1002.91 1002.89 1002.95 1003.07 1003.22 1003.38 1003.51 1003.60 1003.63 1003.61 1003.54 1003.41 1003.25 1003.05 1002.84 1002.63 1002.42 1002.24 1002.09 1001.97 1001.89 1001.83 1001.80 1001.78 1001.78 1001.80 1001.87 1002.01 1002.24 1002.58 1003.04 1003.61 1004.25 1004.94 1005.62 1006.26
1006.14 1006.00 1005.86 1005.74 1005.60 1005.44 1005.23 1004.95 1004.61 1004.21 1003.81 1003.43 1003.13 1002.92 1002.83 1002.84 1002.94 1003.10 1003.28 1003.45 1003.59 1003.68 1003.71 1003.70 1003.64 1003.54 1003.43 1003.31 1003.18 1003.05 1002.94 1002.84 1002.77 1002.71 1002.67 1002.64 1002.63 1002.64 1002.69 1002.78 1002.95 1003.19 1003.54 1003.98 1004.51 1005.09 1005.71 1006.31 1006.88
1006.56 1006.43 1006.32 1006.24 1006.15 1006.03 1005.85 1005.58 1005.22 1004.79 1004.32 1003.87 1003.47 1003.17 1002.99 1002.93 1002.98 1003.11 1003.27 1003.44 1003.59 1003.71 1003.79 1003.83 1003.83 1003.80 1003.75 1003.70 1003.63 1003.56 1003.49 1003.42 1003.36 1003.31 1003.28 1003.28 1003.30 1003.36 1003.45 1003.61 1003.83 1004.12 1004.49 1004.92 1005.42 1005.94 1006.48 1007.00 1007.49
1007.02 1006.90 1006.81 1006.77 1006.75 1006.69 1006.56 1006.33 1005.99 1005.54 1005.04 1004.52 1004.04 1003.65 1003.36 1003.21 1003.16 1003.21 1003.32 1003.45 1003.59 1003.72 1003.82 1003.90 1003.95 1003.99 1004.02 1004.02 1004.01 1003.98 1003.94 1003.89 1003.84 1003.79 1003.77 1003.79 1003.85 1003.96 1004.12 1004.34 1004.62 1004.96 1005.35 1005.77 1006.23 1006.70 1007.16 1007.61 1008.01
1007.49 1007.37 1007.32 1007.34 1007.39 1007.41 1007.36 1007.19 1006.88 1006.45 1005.93 1005.36 1004.80 1004.31 1003.91 1003.63 1003.46 1003.40 1003.40 1003.46 1003.55 1003.66 1003.77 1003.88 1004.00 1004.11 1004.20 1004.28 1004.34 1004.36 1004.35 1004.32 1004.28 1004.24 1004.23 1004.25 1004.34 1004.49 1004.70 1004.97 1005.29 1005.66 1006.05 1006.46 1006.87 1007.28 1007.67 1008.05 1008.39
1007.90 1007.82 1007.83 1007.93 1008.07 1008.19 1008.23 1008.15 1007.90 1007.49 1006.96 1006.35 1005.72 1005.12 1004.59 1004.16 1003.85 1003.63 1003.51 1003.46 1003.47 1003.53 1003.63 1003.77 1003.93 1004.11 1004.30 1004.47 1004.61 1004.70 1004.75 1004.75 1004.73 1004.70 1004.69 1004.72 1004.81 1004.97 1005.19 1005.48 1005.82 1006.18 1006.56 1006.93 1007.30 1007.64 1007.97 1008.28 1008.58
1008.24 1008.23 1008.34 1008.54 1008.80 1009.03 1009.18 1009.18 1009.00 1008.62 1008.09 1007.44 1006.74 1006.03 1005.37 1004.80 1004.32 1003.94 1003.67 1003.48 1003.39 1003.37 1003.44 1003.58 1003.78 1004.03 1004.30 1004.57 1004.81 1004.99 1005.11 1005.17 1005.18 1005.17 1005.16 1005.18 1005.26 1005.40 1005.61 1005.89 1006.20 1006.53 1006.86 1007.19 1007.49 1007.77 1008.04 1008.30 1008.55
1008.50 1008.59 1008.81 1009.15 1009.53 1009.89 1010.15 1010.24 1010.12 1009.78 1009.26 1008.58 1007.82 1007.02 1006.25 1005.53 1004.89 1004.36 1003.92 1003.59 1003.37 1003.26 1003.27 1003.38 1003.60 1003.90 1004.24 1004.60 1004.93 1005.22 1005.42 1005.55 1005.61 1005.62 1005.62 1005.63 1005.68 1005.79 1005.96 1006.19 1006.45 1006.73 1007.00 1007.26 1007.50 1007.72 1007.93 1008.14 1008.36
1008.67 1008.88 1009.24 1009.71 1010.22 1010.70 1011.06 1011.24 1011.19 1010.90 1010.39 1009.71 1008.91 1008.06 1007.20 1006.37 1005.61 1004.93 1004.35 1003.88 1003.53 1003.32 1003.24 1003.30 1003.50 1003.80 1004.19 1004.61 1005.02 1005.38 1005.67 1005.86 1005.97 1006.01 1006.02 1006.03 1006.06 1006.13 1006.25 1006.42 1006.62 1006.83 1007.03 1007.23 1007.40 1007.55 1007.71 1007.86 1008.04
1008.76 1009.10 1009.58 1010.17 1010.80 1011.38 1011.84 1012.10 1012.12 1011.88 1011.41 1010.76 1009.97 1009.10 1008.20 1007.32 1006.48 1005.71 1005.02 1004.44 1003.97 1003.64 1003.46 1003.44 1003.58 1003.86 1004.24 1004.67 1005.12 1005.53 1005.87 1006.12 1006.27 1006.34 1006.37 1006.37 1006.38 1006.42 1006.50 1006.62 1006.76 1006.90 1007.05 1007.17 1007.27 1007.36 1007.45 1007.55 1007.68
1008.78 1009.21 1009.80 1010.48 1011.20 1011.86 1012.39 1012.72 1012.81 1012.65 1012.25 1011.66 1010.92 1010.10 1009.23 1008.36 1007.51 1006.70 1005.96 1005.29 1004.73 1004.30 1004.02 1003.90 1003.95 1004.16 1004.48 1004.88 1005.31 1005.73 1006.08 1006.35 1006.53 1006.63 1006.66 1006.67 1006.68 1006.71 1006.76 1006.84 1006.94 1007.03 1007.12 1007.18 1007.22 1007.25 1007.27 1007.30 1007.36
1008.74 1009.24 1009.88 1010.61 1011.38 1012.09 1012.67 1013.06 1013.22 1013.15 1012.85 1012.36 1011.73 1011.01 1010.24 1009.44 1008.64 1007.87 1007.12 1006.43 1005.82 1005.32 1004.95 1004.73 1004.67 1004.77 1004.99 1005.31 1005.68 1006.04 1006.37 1006.63 1006.80 1006.91 1006.96 1006.98 1006.99 1007.02 1007.07 1007.14 1007.21 1007.28 1007.32 1007.33 1007.32 1007.28 1007.23 1007.19 1007.17
1008.67 1009.18 1009.83 1010.57 1011.34 1012.06 1012.67 1013.11 1013.35 1013.37 1013.19 1012.85 1012.37 1011.80 1011.17 1010.50 1009.82 1009.12 1008.44 1007.78 1007.17 1006.63 1006.19 1005.88 1005.72 1005.70 1005.81 1006.01 1006.27 1006.54 1006.79 1007.00 1007.15 1007.24 1007.29 1007.33 1007.36 1007.40 1007.47 1007.54 1007.61 1007.67 1007.69 1007.66 1007.60 1007.50 1007.38 1007.26 1007.16
1008.59 1009.08 1009.70 1010.39 1011.12 1011.83 1012.44 1012.92 1013.23 1013.36 1013.32 1013.13 1012.83 1012.43 1011.98 1011.48 1010.94 1010.37 1009.79 1009.20 1008.63 1008.10 1007.64 1007.27 1007.03 1006.90 1006.88 1006.95 1007.08 1007.24 1007.39 1007.51 1007.61 1007.67 1007.71 1007.74 1007.79 1007.86 1007.95 1008.05 1008.14 1008.19 1008.20 1008.16 1008.05 1007.90 1007.71 1007.52 1007.35
1008.55 1008.99 1009.53 1010.16 1010.82 1011.49 1012.09 1012.60 1012.98 1013.22 1013.31 1013.28 1013.15 1012.93 1012.65 1012.32 1011.94 1011.51 1011.05 1010.56 1010.06 1009.57 1009.13 1008.74 1008.44 1008.23 1008.11 1008.06 1008.06 1008.09 1008.12 1008.15 1008.17 1008.18 1008.19 1008.23 1008.29 1008.38 1008.49 1008.62 1008.73 1008.79 1008.80 1008.74 1008.61 1008.42 1008.18 1007.93 1007.70
Thickness
5816 5820 5820 5814 5807 5801 5787 5792 5799 5796 5797 5803 5804 5800 5793 5787 5781 5770 5791 5799 5797 5795 5791 5784 5781 5780 5779 5778 5777 5776 5775 5774 5773 5772 5771 5770 5769 5768 5767 5767 5767 5766 5765 5765 5764 5763 5763 5762 5762
5825 5823 5818 5814 5806 5788 5783 5796 5795 5797 5803 5807 5806 5802 5795 5789 5792 5790 5793 5796 5797 5795 5791 5786 5780 5779 5778 5778 5776 5775 5774 5773 5772 5771 5770 5769 5768 5767 5767 5766 5765 5765 5764 5764 5763 5763 5762 5761 5761
5827 5825 5817 5815 5801 5790 5787 5798 5799 5804 5809 5807 5801 5801 5794 5787 5791 5792 5795 5797 5797 5794 5791 5785 5780 5779 5778 5777 5776 5774 5773 5772 5771 5770 5769 5768 5767 5766 5766 5765 5765 5764 5763 5763 5762 5762 5761 5760 5760
5826 5822 5820 5810 5795 5799 5801 5804 5807 5804 5805 5807 5804 5795 5793 5794 5795 5797 5797 5797 5796 5793 5791 5785 5780 5778 5777 5776 5775 5773 5772 5771 5770 5770 5769 5768 5767 5766 5765 5764 5764 5763 5762 5762 5761 5761 5760 5759 5759
5829 5822 5813 5802 5798 5805 5810 5811 5811 5804 5801 5803 5803 5791 5787 5795 5801 5800 5798 5797 5796 5794 5791 5786 5779 5777 5777 5776 5774 5773 5772 5771 5770 5769 5768 5767 5766 5765 5764 5764 5763 5763 5762 5761 5760 5760 5759 5758 5758
5826 5825 5808 5795 5796 5806 5812 5814 5811 5805 5802 5803 5801 5793 5786 5796 5797 5798 5799 5798 5797 5794 5792 5786 5779 5777 5776 5775 5774 5772 5771 5770 5770 5769 5768 5767 5766 5765 5764 5763 5763 5763 5762 5761 5760 5759 5759 5758 5757
5823 5819 5807 5803 5799 5802 5809 5817 5811 5806 5801 5803 5806 5794 5790 5795 5798 5800 5799 5797 5796 5794 5792 5788 5785 5780 5777 5775 5773 5772 5771 5770 5769 5768 5768 5766 5765 5765 5764 5763 5763 5763 5762 5761 5760 5759 5758 5757 5757
5832 5824 5811 5808 5802 5801 5814 5817 5815 5810 5803 5811 5810 5796 5789 5795 5800 5800 5798 5796 5795 5793 5791 5788 5787 5784 5782 5779 5774 5772 5771 5769 5769 5768 5767 5766 5765 5764 5764 5763 5762 5762 5761 5760 5760 5759 5758 5758 5757
5836 5822 5808 5809 5808 5808 5817 5814 5815 5819 5812 5809 5810 5806 5803 5803 5801 5797 5794 5792 5791 5789 5789 5788 5786 5784 5783 5781 5776 5773 5771 5770 5769 5769 5767 5767 5768 5767 5766 5764 5762 5761 5760 5760 5760 5759 5759 5758 5758
5833 5818 5813 5822 5825 5820 5818 5816 5816 5814 5806 5803 5803 5804 5805 5802 5798 5794 5791 5788 5787 5785 5787 5787 5785 5783 5781 5780 5777 5774 5774 5771 5770 5768 5768 5768 5766 5766 5766 5763 5762 5761 5760 5760 5760 5760 5759 5759 5762
5833 5822 5825 5829 5832 5829 5822 5819 5822 5813 5802 5804 5801 5800 5801 5799 5796 5794 5792 5790 5788 5787 5786 5786 5783 5781 5780 5778 5776 5774 5773 5771 5770 5768 5767 5766 5766 5766 5765 5764 5764 5762 5762 5763 5762 5762 5762 5763 5763
5832 5831 5832 5833 5834 5831 5825 5823 5818 5814 5811 5815 5812 5807 5802 5798 5797 5795 5792 5791 5789 5786 5785 5785 5784 5780 5778 5776 5776 5773 5772 5770 5770 5767 5766 5766 5766 5765 5765 5763 5764 5763 5763 5762 5762 5762 5762 5762 5762
5832 5832 5836 5838 5835 5833 5829 5822 5817 5813 5817 5817 5812 5805 5801 5799 5798 5797 5795 5792 5789 5785 5784 5784 5782 5779 5776 5774 5773 5773 5770 5769 5768 5766 5764 5763 5764 5764 5764 5762 5762 5763 5763 5762 5761 5762 5762 5762 5762
5837 5836 5836 5837 5835 5832 5824 5821 5817 5813 5817 5812 5808 5803 5802 5799 5797 5795 5792 5789 5787 5785 5784 5784 5781 5779 5775 5773 5771 5770 5770 5767 5767 5765 5763 5762 5762 5761 5761 5761 5761 5762 5762 5761 5760 5761 5761 5761 5761
5842 5833 5832 5834 5835 5833 5827 5813 5814 5818 5816 5809 5806 5803 5800 5799 5797 5794 5792 5789 5788 5785 5784 5782 5780 5778 5774 5772 5771 5771 5769 5768 5766 5764 5762 5760 5760 5759 5759 5759 5759 5760 5759 5759 5759 5759 5760 5760 5760
5839 5830 5821 5830 5834 5832 5822 5806 5816 5821 5814 5806 5805 5802 5799 5797 5797 5795 5793 5790 5789 5786 5782 5780 5780 5777 5773 5770 5768 5769 5768 5766 5764 5762 5761 5759 5758 5757 5757 5757 5757 5757 5758 5758 5757 5757 5758 5757 5757
5830 5823 5820 5824 5834 5831 5823 5811 5816 5821 5814 5807 5804 5803 5799 5797 5796 5796 5794 5791 5788 5785 5781 5779 5777 5775 5773 5770 5768 5767 5765 5763 5761 5760 5759 5757 5756 5756 5755 5755 5754 5754 5755 5755 5756 5756 5755 5754 5753
5822 5824 5821 5821 5830 5827 5820 5816 5818 5819 5815 5809 5806 5803 5800 5798 5796 5797 5795 5792 5788 5785 5781 5778 5776 5773 5772 5770 5768 5766 5764 5762 5760 5759 5757 5755 5755 5754 5754 5754 5752 5752 5753 5752 5752 5751 5751 5751 5752
5831 5825 5820 5823 5832 5825 5818 5815 5816 5818 5814 5810 5807 5805 5802 5800 5800 5798 5794 5792 5787 5783 5779 5776 5774 5772 5769 5767 5765 5763 5761 5761 5759 5758 5755 5754 5753 5752 5751 5752 5750 5750 5749 5748 5749 5749 5748 5748 5749
5829 5822 5821 5823 5828 5823 5816 5814 5819 5818 5813 5811 5808 5805 5803 5800 5798 5795 5792 5790 5786 5782 5779 5776 5773 5771 5768 5766 5764 5762 5761 5760 5759 5757 5754 5752 5751 5750 5751 5748 5749 5748 5746 5745 5745 5744 5744 5745 5746
5826 5824 5822 5818 5821 5824 5816 5810 5813 5816 5817 5814 5813 5811 5808 5803 5798 5795 5791 5789 5786 5782 5779 5778 5773 5770 5767 5765 5764 5761 5758 5757 5757 5754 5753 5751 5749 5748 5747 5746 5746 5745 5745 5743 5742 5741 5740 5739 5742
5820 5831 5827 5820 5813 5813 5813 5800 5809 5813 5811 5810 5811 5811 5809 5806 5803 5798 5793 5789 5787 5784 5782 5778 5773 5770 5766 5764 5762 5758 5754 5752 5752 5751 5750 5749 5747 5746 5745 5744 5743 5742 5743 5740 5740 5740 5739 5736 5736
5826 5833 5828 5822 5817 5813 5813 5805 5809 5814 5806 5809 5813 5812 5811 5809 5805 5801 5796 5792 5789 5787 5783 5779 5773 5768 5765 5762 5759 5755 5753 5752 5751 5749 5746 5745 5745 5743 5742 5741 5740 5739 5739 5737 5737 5735 5734 5734 5733
5832 5827 5823 5822 5820 5799 5806 5801 5801 5813 5809 5811 5813 5812 5810 5809 5806 5802 5798 5794 5790 5788 5784 5779 5772 5767 5764 5760 5757 5753 5750 5748 5746 5744 5742 5743 5743 5741 5739 5739 5737 5736 5736 5734 5733 5731 5730 5729 5728
5827 5816 5802 5797 5797 5798 5810 5802 5801 5815 5818 5817 5813 5812 5811 5809 5805 5800 5795 5791 5787 5785 5782 5778 5771 5765 5762 5759 5755 5752 5749 5747 5743 5742 5741 5740 5740 5738 5736 5736 5734 5733 5732 5731 5729 5728 5726 5725 5722
5823 5820 5797 5783 5787 5802 5805 5798 5809 5820 5821 5820 5817 5815 5811 5807 5805 5799 5795 5791 5787 5784 5780 5775 5770 5765 5761 5758 5753 5750 5748 5747 5744 5741 5740 5738 5737 5735 5734 5732 5730 5730 5728 5728 5726 5726 5723 5721 5719
5817 5817 5826 5810 5802 5795 5800 5804 5812 5818 5814 5813 5812 5810 5807 5806 5802 5798 5795 5791 5787 5782 5778 5774 5768 5763 5760 5756 5752 5748 5746 5743 5741 5738 5737 5736 5733 5733 5731 5729 5727 5726 5725 5723 5722 5721 5718 5717 5716
5826 5824 5815 5805 5781 5778 5790 5794 5798 5802 5804 5807 5807 5806 5806 5804 5800 5797 5793 5790 5786 5782 5777 5773 5767 5762 5758 5754 5750 5747 5744 5741 5739 5737 5734 5732 5730 5728 5727 5726 5724 5722 5721 5720 5718 5717 5715 5713 5712
5811 5810 5808 5806 5801 5782 5777 5790 5812 5807 5808 5806 5807 5807 5805 5802 5799 5795 5791 5788 5784 5780 5775 5769 5764 5759 5755 5751 5747 5744 5741 5738 5736 5733 5731 5729 5727 5725 5723 5721 5720 5718 5717 5716 5714 5713 5711 5709 5707
5819 5813 5809 5792 5785 5790 5787 5791 5817 5815 5814 5811 5807 5805 5803 5800 5797 5793 5789 5784 5779 5775 5772 5766 5762 5757 5753 5749 5744 5740 5737 5734 5732 5730 5727 5725 5722 5721 5719 5717 5715 5713 5712 5710 5709 5707 5706 5704 5702